Regional Weather Roundup
Issued by NWS

Home | Current Version | Previous Version | Graphics & Text | Print | Product List | Glossary On
Versions: 1 2 3 4 5 6 7 8 9 10 11 12 13 14 15 16 17 18 19 20 21 22 23 24 25 26 27 28
000
ASUS45 KCYS 020910
RWRWY

WYOMING REGIONAL WEATHER ROUNDUP
NATIONAL WEATHER SERVICE CHEYENNE WY
300 AM MDT MON MAY 02 2016

NOTE:  "FAIR" INDICATES FEW OR NO CLOUDS BELOW 12,000 FEET
WITH NO SIGNIFICANT WEATHER AND/OR OBSTRUCTIONS TO VISIBILITY.

WYZ001-021000-
YELLOWSTONE NATIONAL PARK

CITY           SKY/WX    TMP DP  RH WIND       PRES   REMARKS
LK YELLOWSTONE   N/A     23  18  81 CALM      30.30R
W YELLOWSTONE  NOT AVBL

$$
WYZ002>013-054>058-071-098>099-021000-
NORTHERN WYOMING

CITY           SKY/WX    TMP DP  RH WIND       PRES   REMARKS
JACKSON        FAIR      32  25  74 NE5       30.25S WCI  27
CODY           FAIR      37  28  70 SW6       30.22F WCI  33
GREYBULL       FAIR      41  29  62 SE3       30.22F
WORLAND        FAIR      35  31  85 SE5       30.23S WCI  31
SHERIDAN       FAIR      35  30  82 S3        30.19F
BUFFALO          N/A    N/A N/A N/A MISG      30.21F
GILLETTE       FAIR      35  29  78 S10       30.20F WCI  27
HULETT         FAIR      36  30  80 SW6       30.21F WCI  31
NEWCASTLE      FAIR      34  28  80 CALM      30.22F

$$
WYZ014>020-022>026-101>103-021000-
CENTRAL WYOMING

CITY           SKY/WX    TMP DP  RH WIND       PRES   REMARKS
BIG PINEY      FAIR      24  17  74 CALM      30.28S
PINEDALE       FAIR      23  19  86 NW7       30.27F WCI  15
DUBOIS         NOT AVBL
LANDER         FAIR      34  23  64 CALM      30.25S
RIVERTON       FAIR      34  27  75 NW12      30.26F WCI  25
CASPER         FAIR      32  25  75 SW9       30.24F WCI  24
DOUGLAS        FAIR      28  25  88 CALM      30.25F

$$
WYZ021-027>030-104>119-021000-
SOUTHERN WYOMING

CITY           SKY/WX    TMP DP  RH WIND       PRES   REMARKS
EVANSTON       FAIR      31  22  69 E9        30.23S WCI  23
KEMMERER         N/A     30  23  74 E10       30.26S WCI  21
FORT BRIDGER   SUNNY     28  27  93 E7        30.28S WCI  21
ROCK SPRINGS   FAIR      28  21  75 NE6       30.25F WCI  22
DIXON          FAIR      27  20  75 CALM      30.24R
RAWLINS        FAIR      25  20  81 NE10      30.24F WCI  15
SARATOGA       FAIR      23  19  86 SE6       30.24F WCI  16
LARAMIE        FAIR      16  14  92 S10       30.24F WCI   4
CHEYENNE       FAIR      27  20  75 W13       30.23F WCI  16
TORRINGTON     FAIR      31  28  89 S5        30.23F WCI  26
PINE BLUFFS    FAIR      27  23  86 CALM      30.25F

$$




USA.gov is the U.S. government's official web portal to all federal, state and local government web resources and services.